Regional Weather Roundup
Issued by NWS

Home | Current Version | Previous Version | Graphics & Text | Print | Product List | Glossary On
Versions: 1 2 3 4 5 6 7 8 9 10 11 12 13 14 15 16 17 18 19 20 21 22 23 24 25 26 27 28 29 30 31 32 33 34 35 36 37 38 39 40 41 42 43 44 45 46 47 48 49 50
000
ASUS45 KTFX 212204
RWRMT
MONTANA HOURLY WEATHER ROUNDUP
NATIONAL WEATHER SERVICE GREAT FALLS MT
404 PM MDT TUE OCT 21 2014

NOTE: "FAIR" INDICATES FEW OR NO CLOUDS BELOW 12000 FEET WITH NO
SIGNIFICANT WEATHER AND/OR OBSTRUCTIONS TO VISIBILITY.

* THESE STATIONS ARE NOT UNDER NWS QUALITY CONTROL. THEY DO NOT
   REPORT WEATHER SUCH AS PRECIPITATION OR FOG.

MTZ001>007-043-212300-
WEST OF THE DIVIDE
CITY           SKY/WX    TMP DP  RH WIND       PRES   REMARKS
KALISPELL      LGT RAIN  50  46  86 SE3       29.88R
MISSOULA       CLOUDY    48  43  83 E3        29.96R
BUTTE          RAIN      37  36  96 NW6       29.94R WCI  32
MULLAN PASS    CLOUDY    36  36 100 VRB6      29.94R WCI  31
* ESSEX        N/A       45  44  96 N/A        N/A
* LINCOLN      N/A       41  39  93 S5G11      N/A
* LOOKOUT PASS N/A       43  37  79 SE8        N/A
* POLSON       N/A       47  46  96 SE2G7      N/A
* RONAN APT    CLOUDY    48  45  89 SE7        N/A
* SEELEY LAKE  N/A       43  40  89 SW3        N/A
* THOMP F APT  CLOUDY    45  29  54 S18G30     N/A
$$

MTZ008-052>055-212300-
SOUTHWEST MONTANA
CITY           SKY/WX    TMP DP  RH WIND       PRES   REMARKS
BOZEMAN        CLOUDY    52  34  50 SW33G47   29.83R
DILLON         LGT RAIN  43  37  79 S12       29.95R
W YELLOWSTONE  PTSUNNY   39  32  76 S14G23    30.00S WCI  31
* THREE FORKS  PTSUNNY   50  46  86 W13        N/A
* BOULDER HILL N/A       40  33  76 E1         N/A
* MONIDA PASS  N/A       36  34  92 NW6G11     N/A   WCI  31
* RAYNOLDS PAS N/A       43  22  43 SE25G35    N/A
* WHITEHALL    N/A       44  40  86 W11G20     N/A
* WISE RIVER   N/A       39  36  89 W14G21     N/A   WCI  31
$$

MTZ009>010-012-014-046-048-049-054-212300-
EAST SLOPES AND CENTRAL MONTANA
CITY           SKY/WX    TMP DP  RH WIND       PRES   REMARKS
CUT BANK       LGT RAIN  48  46  93 SW9       29.75R
GREAT FALLS    LGT RAIN  46  46 100 W10       29.79R
HELENA         LGT RAIN  45  39  80 CALM      29.86R
MALMSTROM AFB  LGT RAIN  48  46  93 W10       29.80R
* CONRAD       CLOUDY    48  48 100 N/A        N/A
* DEARBORN     N/A       46  43  89 S9         N/A
* EAST GLACIER N/A       46  35  66 W16        N/A
* MONARCH      N/A       41  38  89 W17        N/A
* PENDROY      N/A       45  45 100 SW5        N/A
* ROGERS PASS  N/A       38  36  93 SE8G21     N/A   WCI  32
* SAINT MARY   N/A       48  37  66 SW7G18     N/A
* SWEET GRASS  N/A       49  49 100 W17        N/A
$$

MTZ011-013-016-021-035-040-045-047-050-051-212300-
NORTH CENTRAL MONTANA
CITY           SKY/WX    TMP DP  RH WIND       PRES   REMARKS
HAVRE          CLOUDY    61  45  56 NW9       29.66R
LEWISTOWN      CLOUDY    52  45  77 NW17G31   29.74R
* CHINOOK      CLOUDY    57  46  67 W8        29.64R
* FORT BENTON  CLOUDY    52  46  80 SW13G18   29.77R
* CHESTER      N/A       53  44  72 NW17G25    N/A
* DENTON       N/A       49  47  93 W20G32     N/A
* GEYSER       N/A       47  45  93 W24G31     N/A
* JUDITH GAP   N/A       63  43  48 SW24G29    N/A
* LOMA         N/A       52  49  90 SW10G16    N/A
$$

MTZ017>020-022>027-061-062-212300-
NORTHEAST MONTANA
CITY           SKY/WX    TMP DP  RH WIND       PRES   REMARKS
GLASGOW        PTCLDY    75  45  34 W8        29.57R
GLENDIVE       SUNNY     72  43  35 SW9       29.60F
JORDAN         PTSUNNY   75  39  27 NW17      29.58S
SIDNEY         SUNNY     73  46  38 CALM      29.59S
WOLF POINT     PTCLDY    75  48  39 E5        29.55S
* BEAVER HILL  N/A       75  39  27 SW11       N/A
* CIRCLE       N/A       81  42  25 S7         N/A
* LINDSAY DVD  N/A       78  39  25 S3         N/A
* NAVAJO       N/A       74  43  33 S7         N/A
$$

MTZ028>042-056>058-212300-
SOUTHCENTRAL AND SOUTHEAST MONTANA
CITY           SKY/WX    TMP DP  RH WIND       PRES   REMARKS
BAKER          SUNNY     81  37  21 SW10      29.62F
BILLINGS       PTSUNNY   72  36  27 SW15      29.67R
LIVINGSTON     PTCLDY    59  23  25 SW46G56   29.75S
MILES CITY     PTCLDY    77  37  24 W7        29.60S
* LAUREL APT   PTCLDY    73  36  26 SW10G16    N/A
* ROUNDUP APT  CLOUDY    70  39  32 SW9        N/A
* ALZADA       N/A       82  35  18 SW9G15     N/A
* HYSHAM       N/A       72  35  26 W8         N/A
* LAME DEER    N/A       72  37  28 NW7G14     N/A
* REED POINT   N/A       68  32  26 W21G32     N/A
* ROSCOE HILL  N/A       59  25  27 S17G26     N/A
$$

REGIONAL REPORTS...DAKOTAS
CITY           SKY/WX    TMP DP  RH WIND       PRES   REMARKS
WILLISTON      SUNNY     75  43  32 SE12      29.58F
DICKINSON      SUNNY     79  46  31 S13       29.60F
BEACH          N/A       77  39  26 SW12      29.62R
CROSBY         SUNNY     73  43  34 SE16G21   29.59S
TIOGA          SUNNY     68  41  38 SE16G23   29.64F
BISMARCK       PTCLDY    81  48  32 S17       29.66F
GRAND FORKS    SUNNY     64  43  47 SE30G37   29.85F
FARGO          SUNNY     66  41  40 SE24G36   29.89S
RAPID CITY     HAZE      81  43  26 S15       29.73S
$$

REGIONAL REPORTS...WYOMING/IDAHO/WASHINGTON
CITY           SKY/WX    TMP DP  RH WIND       PRES   REMARKS
GILLETTE       PTCLDY    75  36  24 SW20G28   29.73S
SHERIDAN       PTSUNNY   75  34  22 W20G30    29.66F
CODY           PTSUNNY  N/A N/A N/A W17G31    29.81R
YELLOWSTONE LA PTSUNNY   37  27  67 VRB6      30.05R WCI  32
SALMON         CLOUDY    46  37  71 SE3       30.01R
MULLAN PASS    CLOUDY    36  36 100 VRB6      29.94S WCI  31
SAND POINT     CLOUDY    54  41  62 SW6       29.93R
SPOKANE        PTSUNNY   57  41  55 SW17      29.93R

$$




USA.gov is the U.S. government's official web portal to all federal, state and local government web resources and services.